• En España
  • Lista de países
  • Para 7 días
  • Temperatura del agua
  • Mapa Satelital
  • El tiempo en el mapa
  • Informadores
  • user-avatar
    Iniciar sesión

    Tiempo cada hora Igls

    Hoy, 22 Octubre, Domingo

    Tiempo Temperatura Precipitaciones Viento Presión Humedad
    00:00 +10°C° 0,1 mm 1 mps 684 mmHg 78%
    01:00 +10°C° 0 mm 1 mps 685 mmHg 82%
    02:00 +10°C° 1,1 mm 1 mps 685 mmHg 85%
    03:00 +9°C° 1,1 mm 1 mps 684 mmHg 87%
    04:00 +8°C° 1,1 mm 2 mps 684 mmHg 90%
    05:00 +8°C° 1,3 mm 2 mps 684 mmHg 92%
    06:00 +8°C° 1,3 mm 2 mps 684 mmHg 93%
    07:00 +9°C° 0 mm 1 mps 684 mmHg 94%
    08:00 +8°C° 0,8 mm 2 mps 684 mmHg 92%
    09:00 +8°C° 0,8 mm 2 mps 684 mmHg 91%
    10:00 +8°C° 0,8 mm 2 mps 683 mmHg 89%
    11:00 +8°C° 1 mm 2 mps 683 mmHg 89%
    12:00 +7°C° 1 mm 2 mps 683 mmHg 88%
    13:00 +7°C° 1 mm 3 mps 683 mmHg 87%
    14:00 +7°C° 1 mm 3 mps 683 mmHg 89%
    15:00 +5°C° 1 mm 3 mps 682 mmHg 90%
    16:00 +4°C° 1 mm 3 mps 682 mmHg 91%
    17:00 +4°C° 0,7 mm 3 mps 682 mmHg 92%
    18:00 +4°C° 0,7 mm 3 mps 683 mmHg 93%
    19:00 +3°C° 0,7 mm 3 mps 683 mmHg 94%
    20:00 +3°C° 0,7 mm 3 mps 683 mmHg 94%
    21:00 +3°C° 0,7 mm 3 mps 683 mmHg 94%
    22:00 +3°C° 0,7 mm 3 mps 683 mmHg 94%
    23:00 +2°C° 1 mm 3 mps 683 mmHg 94%

    Mañana, 23 Octubre, Lunes

    Tiempo Temperatura Precipitaciones Viento Presión Humedad
    00:00 +2°C° 1 mm 3 mps 683 mmHg 94%
    01:00 +2°C° 1 mm 3 mps 683 mmHg 94%
    02:00 +2°C° 0,6 mm 3 mps 683 mmHg 94%
    03:00 +3°C° 0,6 mm 2 mps 683 mmHg 95%
    04:00 +3°C° 0,6 mm 2 mps 683 mmHg 95%
    05:00 +3°C° 0,4 mm 2 mps 683 mmHg 95%
    06:00 +3°C° 0,4 mm 2 mps 683 mmHg 95%
    07:00 +3°C° 0,4 mm 2 mps 684 mmHg 95%
    08:00 +3°C° 0,9 mm 2 mps 684 mmHg 94%
    09:00 +4°C° 0,9 mm 2 mps 684 mmHg 93%
    10:00 +3°C° 0,9 mm 3 mps 684 mmHg 92%
    11:00 +4°C° 0,8 mm 3 mps 684 mmHg 92%
    12:00 +4°C° 0,8 mm 3 mps 684 mmHg 92%
    13:00 +4°C° 0,8 mm 3 mps 684 mmHg 91%
    14:00 +4°C° 0,8 mm 3 mps 684 mmHg 92%
    15:00 +4°C° 0,8 mm 3 mps 684 mmHg 92%
    16:00 +5°C° 0,8 mm 2 mps 685 mmHg 92%
    17:00 +5°C° 1,1 mm 2 mps 685 mmHg 93%
    18:00 +4°C° 1,1 mm 2 mps 685 mmHg 94%
    19:00 +4°C° 1,1 mm 2 mps 686 mmHg 95%
    20:00 +4°C° 1,4 mm 2 mps 686 mmHg 95%
    21:00 +4°C° 1,4 mm 2 mps 686 mmHg 95%
    22:00 +4°C° 1,4 mm 2 mps 687 mmHg 96%
    23:00 +4°C° 0,9 mm 2 mps 687 mmHg 96%

    Pasado mañana, 24 Octubre, Martes

    Tiempo Temperatura Precipitaciones Viento Presión Humedad
    00:00 +4°C° 0,9 mm 2 mps 687 mmHg 96%
    01:00 +4°C° 0,9 mm 2 mps 688 mmHg 96%
    02:00 +4°C° 0,4 mm 2 mps 688 mmHg 96%
    03:00 +4°C° 0,4 mm 2 mps 688 mmHg 96%
    04:00 +4°C° 0,4 mm 2 mps 688 mmHg 96%
    05:00 +4°C° 0,1 mm 2 mps 688 mmHg 96%
    06:00 +4°C° 0,1 mm 2 mps 688 mmHg 95%
    07:00 +3°C° 0,1 mm 2 mps 688 mmHg 95%
    08:00 +5°C° 0 mm 2 mps 689 mmHg 94%
    09:00 +6°C° 0 mm 2 mps 689 mmHg 93%
    10:00 +7°C° 0 mm 2 mps 689 mmHg 92%
    11:00 +8°C° 0 mm 2 mps 689 mmHg 91%
    12:00 +8°C° 0 mm 2 mps 689 mmHg 91%
    13:00 +9°C° 0 mm 2 mps 689 mmHg 91%
    14:00 +9°C° 0 mm 2 mps 689 mmHg 91%
    15:00 +8°C° 0 mm 2 mps 689 mmHg 92%
    16:00 +8°C° 0 mm 2 mps 689 mmHg 93%
    17:00 +7°C° 0 mm 2 mps 689 mmHg 94%
    18:00 +6°C° 0 mm 2 mps 690 mmHg 94%
    19:00 +5°C° 0 mm 2 mps 690 mmHg 95%
    20:00 +5°C° 0 mm 2 mps 690 mmHg 93%
    21:00 +5°C° 0 mm 2 mps 690 mmHg 90%
    22:00 +5°C° 0 mm 2 mps 690 mmHg 88%
    23:00 +5°C° 0 mm 2 mps 690 mmHg 87%

    25 Octubre, Miércoles

    Tiempo Temperatura Precipitaciones Viento Presión Humedad
    00:00 +5°C° 0 mm 2 mps 690 mmHg 86%
    01:00 +5°C° 0 mm 2 mps 690 mmHg 85%
    02:00 +6°C° 0 mm 2 mps 690 mmHg 84%
    03:00 +6°C° 0 mm 2 mps 690 mmHg 84%
    04:00 +6°C° 0 mm 2 mps 689 mmHg 83%
    05:00 +7°C° 0 mm 1 mps 689 mmHg 83%
    06:00 +7°C° 0 mm 1 mps 689 mmHg 83%
    07:00 +7°C° 0 mm 1 mps 690 mmHg 83%
    08:00 +9°C° 0 mm 1 mps 690 mmHg 84%
    09:00 +11°C° 0 mm 1 mps 690 mmHg 86%
    10:00 +13°C° 0 mm 1 mps 690 mmHg 88%
    11:00 +13°C° 0 mm 1 mps 690 mmHg 87%
    12:00 +14°C° 0 mm 1 mps 691 mmHg 85%
    13:00 +15°C° 0 mm 1 mps 691 mmHg 84%
    14:00 +14°C° 0 mm 1 mps 690 mmHg 86%
    15:00 +13°C° 0 mm 0 mps 690 mmHg 87%
    16:00 +12°C° 0 mm 0 mps 690 mmHg 89%
    17:00 +12°C° 0 mm 1 mps 690 mmHg 89%
    18:00 +11°C° 0 mm 1 mps 690 mmHg 88%
    19:00 +9°C° 0 mm 1 mps 690 mmHg 87%
    20:00 +9°C° 0 mm 1 mps 690 mmHg 85%
    21:00 +9°C° 0 mm 1 mps 691 mmHg 82%
    22:00 +9°C° 0 mm 1 mps 691 mmHg 80%
    23:00 +9°C° 0 mm 1 mps 691 mmHg 78%

    26 Octubre, Jueves

    Tiempo Temperatura Precipitaciones Viento Presión Humedad
    00:00 +8°C° 0 mm 1 mps 691 mmHg 77%
    01:00 +8°C° 0 mm 1 mps 691 mmHg 75%
    02:00 +8°C° 0 mm 1 mps 691 mmHg 74%
    03:00 +8°C° 0 mm 1 mps 691 mmHg 74%
    04:00 +8°C° 0 mm 1 mps 691 mmHg 73%
    05:00 +8°C° 0 mm 1 mps 691 mmHg 73%
    06:00 +8°C° 0 mm 1 mps 691 mmHg 73%
    07:00 +7°C° 0 mm 2 mps 691 mmHg 73%
    08:00 +10°C° 0 mm 1 mps 691 mmHg 75%
    09:00 +12°C° 0 mm 1 mps 691 mmHg 77%
    10:00 +15°C° 0 mm 1 mps 692 mmHg 80%
    11:00 +16°C° 0 mm 1 mps 691 mmHg 78%
    12:00 +18°C° 0 mm 1 mps 691 mmHg 76%
    13:00 +19°C° 0 mm 1 mps 691 mmHg 74%
    14:00 +18°C° 0 mm 1 mps 691 mmHg 76%
    15:00 +16°C° 0 mm 1 mps 691 mmHg 78%
    16:00 +15°C° 0 mm 1 mps 690 mmHg 80%
    17:00 +13°C° 0 mm 1 mps 690 mmHg 80%
    18:00 +12°C° 0 mm 1 mps 690 mmHg 80%
    19:00 +10°C° 0 mm 1 mps 690 mmHg 81%
    20:00 +10°C° 0 mm 1 mps 690 mmHg 78%
    21:00 +9°C° 0 mm 2 mps 690 mmHg 76%
    22:00 +9°C° 0 mm 2 mps 690 mmHg 74%
    23:00 +9°C° 0 mm 2 mps 690 mmHg 73%

    27 Octubre, Viernes

    Tiempo Temperatura Precipitaciones Viento Presión Humedad
    00:00 +8°C° 0 mm 2 mps 690 mmHg 72%
    01:00 +8°C° 0 mm 2 mps 689 mmHg 70%
    02:00 +8°C° 0 mm 2 mps 689 mmHg 70%
    03:00 +8°C° 0 mm 2 mps 689 mmHg 70%
    04:00 +8°C° 0 mm 2 mps 688 mmHg 69%
    05:00 +8°C° 0 mm 2 mps 688 mmHg 70%
    06:00 +8°C° 0 mm 2 mps 688 mmHg 70%
    07:00 +8°C° 0 mm 2 mps 688 mmHg 71%
    08:00 +10°C° 0 mm 2 mps 688 mmHg 72%
    09:00 +13°C° 0 mm 1 mps 688 mmHg 74%
    10:00 +15°C° 0 mm 1 mps 688 mmHg 75%
    11:00 +16°C° 0 mm 1 mps 687 mmHg 74%
    12:00 +17°C° 0 mm 2 mps 687 mmHg 72%
    13:00 +17°C° 0 mm 2 mps 686 mmHg 71%
    14:00 +16°C° 0 mm 2 mps 686 mmHg 74%
    15:00 +15°C° 0 mm 2 mps 685 mmHg 77%
    16:00 +14°C° 0 mm 2 mps 684 mmHg 80%
    17:00 +13°C° 0,2 mm 2 mps 684 mmHg 83%
    18:00 +12°C° 0,2 mm 2 mps 684 mmHg 87%
    19:00 +10°C° 0,2 mm 2 mps 683 mmHg 90%
    20:00 +10°C° 2,3 mm 2 mps 684 mmHg 92%
    21:00 +9°C° 2,3 mm 2 mps 684 mmHg 93%
    22:00 +9°C° 2,3 mm 2 mps 684 mmHg 95%
    23:00 +9°C° 1,4 mm 3 mps 685 mmHg 95%
    Mostrar más